Regional Weather Roundup
Issued by NWS

Home | Current Version | Previous Version | Graphics & Text | Print | Product List | Glossary On
Versions: 1 2 3 4 5 6 7 8 9 10 11 12 13 14 15 16 17 18 19 20 21 22 23 24 25 26 27 28 29 30 31 32 33 34 35 36 37 38 39 40 41 42 43 44 45 46 47 48 49 50
737
ASUS43 KDTX 221810
RWRMI
MICHIGAN HOURLY REGIONAL WEATHER ROUNDUP
NATIONAL WEATHER SERVICE DETROIT/PONTIAC MI
200 PM EDT SUN APR 22 2018

NOTE: "FAIR" INDICATES FEW OR NO CLOUDS BELOW 12,000 FEET WITH NO
SIGNIFICANT WEATHER AND/OR OBSTRUCTION TO VISIBILITY.

MIZ047>049-052>055-059>063-066>070-074>076-081>083-221900-
SOUTHEAST LOWER MICHIGAN

CITY           SKY/WX    TMP DP  RH WIND       PRES   REMARKS
ADRIAN         FAIR      58  23  26 E15       30.38F
6HR MIN TEMP:  39; 6HR MAX TEMP:  59;

ALMA           FAIR      60  26  27 E14       30.39F
6HR MIN TEMP:  34; 6HR MAX TEMP:  61;

ANN ARBOR      FAIR      59  24  26 NE12G17   30.38F
BAD AXE        FAIR      61  20  20 SE6       30.42S
6HR MIN TEMP:  35; 6HR MAX TEMP:  61;

CARO           FAIR      60  20  21 S3        30.39F
DETROIT CITY   FAIR      58  24  27 E9G20     30.40F
6HR MIN TEMP:  38; 6HR MAX TEMP:  58;

DETROIT        FAIR      59  26  28 SE5       30.39F
6HR MIN TEMP:  40; 6HR MAX TEMP:  61;

FLINT          FAIR      60  23  24 MISG      30.38F
6HR MIN TEMP:  33; 6HR MAX TEMP:  60;

GROSSE ILE     FAIR      60  26  27 E8        30.38F
6HR MIN TEMP:  41; 6HR MAX TEMP:  60;

HILLSDALE      FAIR      57  21  24 E12G21    30.35F
HOWELL         FAIR      59  20  22 SE7       30.38F
6HR MIN TEMP:  35; 6HR MAX TEMP:  59;


CITY           SKY/WX    TMP DP  RH WIND       PRES   REMARKS
JACKSON        FAIR      60  21  22 E13G18    30.37F
6HR MIN TEMP:  38; 6HR MAX TEMP:  60;

LAMBERTVILLE   FAIR      57  22  26 E8G23     30.38F
6HR MIN TEMP:  42; 6HR MAX TEMP:  57;

LANSING        FAIR      61  24  24 SE9       30.37F
6HR MIN TEMP:  35; 6HR MAX TEMP:  62;

LAPEER         FAIR      58  24  26 E6        30.40F
6HR MIN TEMP:  32; 6HR MAX TEMP:  59;

MASON          FAIR      62  17  17 NE8G17    30.37F
6HR MIN TEMP:  36; 6HR MAX TEMP:  62;

MONROE         FAIR      58  20  23 E13G18    30.38F
6HR MIN TEMP:  40; 6HR MAX TEMP:  58;

MT. CLEMENS    MOSUNNY   58  29  33 E6        30.39F
6HR MIN TEMP:  36; 6HR MAX TEMP:  58;

PONTIAC        PTSUNNY   58  23  26 VRB5      30.38F
6HR MIN TEMP:  35; 6HR MAX TEMP:  59;

PORT HOPE        N/A     47  35  63 E13       30.42F
6HR MIN TEMP:  35; 6HR MAX TEMP:  47;

PORT HURON     FAIR      59  25  27 NE8       30.41F
TRI CITIES     FAIR      60  22  23 NE12      30.41F
6HR MIN TEMP:  39; 6HR MAX TEMP:  61;

MIDLAND        FAIR      58  28  32 E8        30.40F
6HR MIN TEMP:  32; 6HR MAX TEMP:  59;

TROY           FAIR      58  18  20 E5        30.42S
SAGINAW HB     FAIR      61  23  23 NE6       30.39F
$$
MIZ043>046-050>051-056>058-064>065-071>073-077>080-221900-
SOUTHWEST LOWER MICHIGAN

CITY           SKY/WX    TMP DP  RH WIND       PRES   REMARKS
BATTLE CREEK   FAIR      59  23  25 E16       30.36F
6HR MIN TEMP:  40; 6HR MAX TEMP:  60;

BENTON HARBOR  FAIR      63  23  21 NE15G23   30.33F
6HR MIN TEMP:  39; 6HR MAX TEMP:  64;

BIG RAPIDS     FAIR      61  14  15 SE7G17    30.37F
6HR MIN TEMP:  31; 6HR MAX TEMP:  61;

COLDWATER      FAIR      59  25  27 SE12G18   30.35F
6HR MIN TEMP:  43; 6HR MAX TEMP:  59;

FREMONT        FAIR      63   0   8 SE10      30.36F
6HR MIN TEMP:  36; 6HR MAX TEMP:  63;

HOLLAND        FAIR      63  27  25 E10       30.36F
6HR MIN TEMP:  38; 6HR MAX TEMP:  63;

GRAND RAPIDS   PTSUNNY   62  28  27 E16       30.37F
6HR MIN TEMP:  35; 6HR MAX TEMP:  62;

IONIA          FAIR      61  26  26 E10G17    30.37F
6HR MIN TEMP:  35; 6HR MAX TEMP:  61;

KALAMAZOO      FAIR      63  21  20 SE12G21   30.35F
6HR MIN TEMP:  42; 6HR MAX TEMP:  63;

LUDINGTON      FAIR      55  28  34 W8        30.38F
6HR MIN TEMP:  30; 6HR MAX TEMP:  57;

MARSHALL       FAIR      59  21  23 E8        30.35F
6HR MIN TEMP:  39; 6HR MAX TEMP:  60;

MOUNT PLEASANT FAIR      62  27  26 S9G16     30.38F
6HR MIN TEMP:  34; 6HR MAX TEMP:  63;

MUSKEGON       FAIR      64  25  22 E9        30.37F
6HR MIN TEMP:  33; 6HR MAX TEMP:  64;

SOUTH HAVEN    FAIR      63  18  17 E15G23    30.34F
$$
MIZ016>042-221900-
NORTHERN LOWER MICHIGAN

CITY           SKY/WX    TMP DP  RH WIND       PRES   REMARKS
ALPENA         FAIR      54  20  26 E10       30.42F
6HR MIN TEMP:  27; 6HR MAX TEMP:  59;

BEAVER ISLAND  FAIR      53  22  29 NW6       30.42F
6HR MIN TEMP:  31; 6HR MAX TEMP:  56;

BELLAIRE       FAIR      58  16  19 CALM      30.40S
6HR MIN TEMP:  26; 6HR MAX TEMP:  59;

CADILLAC       FAIR      60  18  19 CALM      30.37F
CHARLEVOIX     FAIR      47  27  46 NW3       30.44F
6HR MIN TEMP:  31; 6HR MAX TEMP:  53;

FRANKFORT      FAIR      62  24  24 NW5       30.39S
GAYLORD        FAIR      56  16  20 VRB3      30.40F
6HR MIN TEMP:  30; 6HR MAX TEMP:  57;

HARBOR SPRINGS FAIR      55  25  30 SW3       30.40F
HOUGHTON LAKE  FAIR      59  22  24 W6        30.39F
6HR MIN TEMP:  30; 6HR MAX TEMP:  60;

MANISTEE       FAIR      56  22  26 W12       30.38F
OSCODA         FAIR      54  22  29 E7        30.42F
6HR MIN TEMP:  31; 6HR MAX TEMP:  55;

PELLSTON       FAIR      61  14  16 CALM      30.41F
6HR MIN TEMP:  27; 6HR MAX TEMP:  61;

ROGERS CITY    FAIR      46  31  54 N5        30.43F
TRAVERSE CITY  FAIR      57  30  35 NW7       30.39F
6HR MIN TEMP:  30; 6HR MAX TEMP:  57;

$$
MIZ007>008-015-221900-
EASTERN UPPER MICHIGAN

CITY           SKY/WX    TMP DP  RH WIND       PRES   REMARKS
KINROSS        FAIR      58  13  17 VRB6      30.41F
6HR MIN TEMP:  31; 6HR MAX TEMP:  58;

MACKINAC ISLAN FAIR      55  19  24 E6        30.41F
6HR MIN TEMP:  35; 6HR MAX TEMP:  56;

NEWBERRY       FAIR      50  13  23 S12       30.39F
6HR MIN TEMP:  28; 6HR MAX TEMP:  52;

S. S. MARIE    FAIR      57  19  22 SE6       30.40F
6HR MIN TEMP:  35; 6HR MAX TEMP:  57;

MUNISING         N/A     60  23  24 W8        30.35F
6HR MIN TEMP:  33; 6HR MAX TEMP:  60;

$$
MIZ004>006-011>014-085-221900-
CENTRAL UPPER MICHIGAN

CITY           SKY/WX    TMP DP  RH WIND       PRES   REMARKS
MANISTIQUE     FAIR      49  18  28 S6        30.42S
6HR MIN TEMP:  29; 6HR MAX TEMP:  50;

ESCANABA       FAIR      48  30  49 SE12      30.40F
6HR MIN TEMP:  29; 6HR MAX TEMP:  49;

MENOMINEE      FAIR      58  22  24 S9        30.40F
6HR MIN TEMP:  31; 6HR MAX TEMP:  58;

SAWYER-GWINN   SUNNY     57  18  21 SW9       30.36F
$$
MIZ001>003-009>011-084-221900-
WESTERN UPPER MICHIGAN

CITY           SKY/WX    TMP DP  RH WIND       PRES   REMARKS
IRON MOUNTAIN  FAIR      61  19  19 CALM      30.34F
6HR MIN TEMP:  30; 6HR MAX TEMP:  62;

HOUGHTON       FAIR      54  14  20 SE5       30.35F
6HR MIN TEMP:  36; 6HR MAX TEMP:  54;

COPPER HARBOR    N/A     56  10  16 W6        30.35F
6HR MIN TEMP:  34; 6HR MAX TEMP:  56;

IRONWOOD       FAIR      57  21  24 W3        30.33F
6HR MIN TEMP:  27; 6HR MAX TEMP:  59;

$$

ABBREVIATIONS USED IN REMARKS
   TC - TEMPERATURE IN CELSIUS
  WCI - WIND CHILL INDEX
   HX - HEAT INDEX
  VSB - VISIBILITY





USA.gov is the U.S. government's official web portal to all federal, state and local government web resources and services.